Regional Weather Roundup
Issued by NWS

Home | Current Version | Previous Version | Graphics & Text | Print | Product List | Glossary On
Versions: 1 2 3 4 5 6 7 8 9 10 11 12 13 14 15 16 17 18 19 20 21 22 23 24 25 26 27
000
ASUS45 KBOU 171210
RWRCO

WEATHER ROUNDUP FOR COLORADO
NATIONAL WEATHER SERVICE DENVER/BOULDER CO
500 AM MST FRI NOV 17 2017

NOTE: "FAIR" INDICATES FEW OR NO CLOUDS BELOW 12000 FEET WITH NO
SIGNIFICANT WEATHER AND/OR OBSTRUCTIONS TO VISIBILITY.

COZ001>005-013-030-031-171300-
...NORTHWEST COLORADO...

CITY           SKY/WX    TMP DP  RH WIND       PRES   REMARKS
CRAIG          CLOUDY    54  26  34 SW25G33   29.73R
HAYDEN         CLOUDY    52  27  38 SW23G38   29.74F
MEEKER         CLOUDY    54  27  35 SW25G37   29.77S
RABBIT EARS PA CLOUDY    34  27  75 W12G32    29.85S WCI  25
STEAMBOAT SPGS CLOUDY    50  28  41 SW9G23    29.76S
WALDEN         CLOUDY    45  25  45 SW23G30   29.78R
$$

COZ006>008-011-171300-
...WEST CENTRAL VALLEYS...

CITY           SKY/WX    TMP DP  RH WIND       PRES   REMARKS
GRAND JUNCTION FAIR      55  28  35 S7        29.79S
MONTROSE       FAIR      55  32  41 S18G26    29.89F
EAGLE          CLOUDY    53  26  35 W14       29.81F
RIFLE          FAIR      54  27  35 W10       29.79S
DELTA          MOCLDY    59  29  32 S5        29.87R
NUCLA          FAIR      57  30  35 SW23G37   29.95S
$$

COZ017>023-064>068-171300-
...SOUTHWEST COLORADO...

CITY           SKY/WX    TMP DP  RH WIND       PRES   REMARKS
DURANGO        CLOUDY    43  26  51 CALM      30.03F
CORTEZ         FAIR      49  28  44 S6        30.00F
PAGOSA SPRINGS CLOUDY    44  32  60 CALM      30.07F
TELLURIDE      CLOUDY    46  28  49 SW26G40   30.06S
WOLF CREEK PAS SNOW      27  27 100 S26G43    30.15S VSB 1/2 WCI  11
$$

COZ009-010-012-014-032>034-037-058>063-171300-
...CENTRAL COLORADO...

CITY           SKY/WX    TMP DP  RH WIND       PRES   REMARKS
ASPEN          CLOUDY    45  32  60 SE13      29.86F
BUENA VISTA    LGT RAIN  39  37  89 SE13G18   29.90F
COPPER MTN     LGT SNOW  34  28  80 MISG      29.97F
BERTHOUD PASS  LGT SNOW  25  14  63 W44G60    29.91F WCI   5
COTTONWOOD PAS LGT SNOW  39  36  87 CALM      29.95F
GUNNISON       MOCLDY    47  32  56 SW8G17    29.94S
KREMMLING      CLOUDY    54  27  35 SW17G33   29.80F
LEADVILLE      LGT SNOW  32  29  88 NE6       29.92F FOG     WCI  26
MONARCH PASS   CLOUDY    28  28 100 W45G56    30.07F WCI  10
SALIDA         CLOUDY    45  38  77 SW6       30.00S
SUNLIGHT       CLOUDY    32  23  69 SW17G36   29.96S WCI  21
WILKERSON PASS CLOUDY    30  28  93 SW15G25   29.98F FOG     WCI  19
$$

COZ069>075-171300-
...SAN LUIS VALLEY/SANGRE DE CRISTO MOUNTAINS...

CITY           SKY/WX    TMP DP  RH WIND       PRES   REMARKS
ALAMOSA        FAIR      39  32  76 S17       29.99F
DEL NORTE      FAIR      45  29  54 SW29G39   29.97F
LA VETA PASS   CLOUDY    34  30  86 S25G38      N/A  WCI  21
SAGUACHE       MOCLDY    39  30  70 CALM      29.96R
$$

COZ035-036-038>040-171300-
...NORTHERN COLORADO FRONT RANGE...

CITY           SKY/WX    TMP DP  RH WIND       PRES   REMARKS
DENVER INTL AP FAIR      56  25  30 SW16      29.67S
DMNS CITY PARK   N/A     55  24  30 SE8       29.69F
AURORA         PTCLDY    56  27  32 SW17      29.70S
FRONT RANGE AP FAIR      55  27  34 SW13      29.69S
ERIE MUNI ARPT FAIR      58  27  30 SW8       29.71F
BOULDER MUN AP FAIR      59  28  31 S7        29.66S
CENTENNIAL     FAIR      53  28  38 SW14      29.72S
BROOMFIELD     FAIR      55  28  35 SW12G20   29.70S
FORT COLLINS   FAIR      57  29  34 SW15      29.63F
LONGMONT       FAIR      46  31  54 CALM      29.68R
$$

COZ041-046-047-076>085-087-088-171300-
...PIKES PEAK/PALMER DIVIDE AND SOUTHERN FOOTHILLS...

CITY           SKY/WX    TMP DP  RH WIND       PRES   REMARKS
COLO. SPRINGS  FAIR      55  29  36 W24G30    29.81S
A. F. ACADEMY  FAIR      55  28  35 W20G29    29.79F
SCHRIEVER AFB  FAIR      55  26  33 W26       29.77F
CHEYENNE MTN   FAIR      52  28  40 SE20G30   29.76F
ELLICOTT         N/A    N/A N/A N/A W12       29.78R
FALCON         FAIR      53  25  34 SW13G24   29.81S
FORT CARSON    FAIR      54  29  38 SW18G26   29.78F
LIMON          FAIR      49  26  41 CALM      29.70F
MONUMENT HILL  FAIR      48  30  49 SW28G37   29.79S
CANON CITY     FAIR      46  30  53 NW8       29.79S
WALSENBURG     FAIR      55  34  44 W13G25    29.90F
TRINIDAD       FAIR      58  31  35 W20G28    29.82F
$$

COZ042>045-048>051-090-091-171300-
...NORTHEAST COLORADO...

CITY           SKY/WX    TMP DP  RH WIND       PRES   REMARKS
GREELEY ARPT   FAIR      46  29  51 E5        29.63F
AKRON          FAIR      51  28  41 SW9       29.64F
BURLINGTON     FAIR      55  30  38 SW15      29.68S
WRAY           NOT AVBL
YUMA           FAIR      45  32  61 W6        29.63F
STERLING       FAIR      37  28  70 W3        29.62R
HOLYOKE        FAIR      43  32  65 SW7       29.62S
FORT MORGAN    FAIR      41  27  56 N3        29.63S
$$

COZ086-089-092>099-171300-
...SOUTHEAST COLORADO...

CITY           SKY/WX    TMP DP  RH WIND       PRES   REMARKS
PUEBLO         FAIR      53  29  39 W13       29.74S
LA JUNTA       FAIR      62  29  28 W17       29.71F
LAMAR          FAIR      46  28  49 SW12      29.69F
SPRINGFIELD      N/A     45  27  49 W7        29.77F
$$




USA.gov is the U.S. government's official web portal to all federal, state and local government web resources and services.